EW5898 Weather Reports


Display with metric or nautical units.
time (UTC)temp
F
wind
direction
speed
MPH
gust
MPH
rain 1hr
in
rain 24hr
in
rain mn
in
humidity
%
barometer
mb
20260504201917 73 257 5.0 7.0 0.00 0.00 0.00 59 1009.4
20260504200917 73 282 4.0 9.0 0.00 0.00 0.00 64 1009.5
20260504195916 73 302 5.0 7.0 0.00 0.00 0.00 60 1009.5
20260504194916 73 244 2.0 6.0 0.00 0.00 0.00 60 1009.6
20260504193916 72 251 4.0 7.0 0.00 0.00 0.00 58 1009.5
20260504192917 71 278 3.0 5.0 0.00 0.00 0.00 60 1009.6
20260504191915 70 269 3.0 6.0 0.00 0.00 0.00 61 1009.5
20260504190916 71 285 1.0 5.0 0.00 0.00 0.00 65 1009.6
20260504185915 71 286 2.0 7.0 0.00 0.00 0.00 68 1009.6
20260504184916 71 175 1.0 5.0 0.00 0.00 0.00 68 1009.6
20260504183914 70 290 3.0 6.0 0.00 0.00 0.00 65 1009.6
20260504182918 70 238 1.0 3.0 0.00 0.00 0.00 67 1009.7
20260504182914 70 257 2.0 4.0 0.00 0.00 0.00 64 1009.6
20260504180913 69 265 3.0 6.0 0.00 0.00 0.00 66 1009.7
20260504175913 69 235 1.0 4.0 0.00 0.00 0.00 69 1009.8
20260504174913 68 272 0.0 5.0 0.00 0.00 0.00 71 1009.8
20260504173910 68 285 2.0 6.0 0.00 0.00 0.00 71 1009.7
20260504172911 68 288 3.0 5.0 0.00 0.00 0.00 68 1009.7
20260504171915 67 269 0.0 3.0 0.00 0.00 0.00 68 1009.7
20260504171911 68 302 2.0 4.0 0.00 0.00 0.00 68 1009.7
20260504171021 66 252 1.0 4.0 0.00 0.00 0.00 73 1009.5
20260504171017 67 275 0.0 4.0 0.00 0.00 0.00 71 1009.7
20260504150907 61 340 0.0 1.0 0.00 0.00 0.00 77 1009.7
20260504140906 52 79 0.0 1.0 0.00 0.00 0.00 90 1009.0
20260504081858 52 79 0.0 2.0 0.00 0.00 0.00 91 1008.7
20260504081853 52 75 1.0 2.0 0.00 0.00 0.00 91 1008.7
20260504045851 58 76 0.0 1.0 0.00 0.00 0.00 80 1008.7
20260504045847 57 76 0.0 0.0 0.00 0.00 0.00 83 1008.8
20260504043848 59 326 0.0 0.0 0.00 0.00 0.00 77 1008.7
20260504042846 60 289 0.0 0.0 0.00 0.00 0.00 74 1008.6
20260504041846 60 275 0.0 3.0 0.00 0.00 0.00 74 1008.6
20260504040845 61 282 0.0 1.0 0.00 0.00 0.00 73 1008.7
20260504035846 62 275 0.0 2.0 0.00 0.00 0.00 70 1008.6
20260504034845 62 266 0.0 1.0 0.00 0.00 0.00 69 1008.5
20260504033849 64 278 0.0 1.0 0.00 0.00 0.00 65 1008.5
20260504033845 63 262 0.0 1.0 0.00 0.00 0.00 67 1008.5
20260504032950 65 259 0.0 2.0 0.00 0.00 0.00 64 1008.4
20260504030843 67 303 0.0 2.0 0.00 0.00 0.00 61 1008.4
20260504025842 67 279 0.0 3.0 0.00 0.00 0.00 60 1008.4
20260504024842 68 283 1.0 4.0 0.00 0.00 0.00 59 1008.5
20260504023847 68 261 4.0 7.0 0.00 0.00 0.00 57 1008.5
20260504023843 68 271 1.0 5.0 0.00 0.00 0.00 59 1008.5
20260504021841 69 296 4.0 7.0 0.00 0.00 0.00 55 1008.5
20260504020841 70 292 4.0 7.0 0.00 0.00 0.00 53 1008.6
20260504015841 70 261 3.0 5.0 0.00 0.00 0.00 56 1008.7
20260504014841 70 237 4.0 7.0 0.00 0.00 0.00 54 1008.7
20260504013840 69 254 4.0 9.0 0.00 0.00 0.00 57 1008.9
20260504012840 69 302 4.0 9.0 0.00 0.00 0.00 58 1008.9
20260504011947 72 271 1.0 7.0 0.00 0.00 0.00 59 1009.0
20260504011844 71 303 5.0 7.0 0.00 0.00 0.00 58 1009.1
20260504011840 70 306 5.0 9.0 0.00 0.00 0.00 61 1009.0
20260504004839 72 296 3.0 9.0 0.00 0.00 0.00 60 1009.2
20260504003844 71 279 4.0 9.0 0.00 0.00 0.00 60 1009.3
20260504003839 71 269 4.0 7.0 0.00 0.00 0.00 59 1009.2
20260504002943 72 281 4.0 9.0 0.00 0.00 0.00 59 1009.5
20260504000838 72 235 4.0 9.0 0.00 0.00 0.00 59 1009.6
20260503235838 71 244 5.0 9.0 0.00 0.00 0.00 59 1009.6
20260503234837 71 275 5.0 10.0 0.00 0.00 0.00 59 1009.8
20260503233837 70 274 5.0 11.0 0.00 0.00 0.00 60 1009.9
20260503232836 70 247 5.0 16.0 0.00 0.00 0.00 60 1010.0
20260503231836 71 265 5.0 11.0 0.00 0.00 0.00 63 1010.1
20260503230835 70 262 6.0 11.0 0.00 0.00 0.00 60 1010.3
20260503225835 70 231 6.0 15.0 0.00 0.00 0.00 59 1010.4
20260503224835 70 251 5.0 11.0 0.00 0.00 0.00 61 1010.5
20260503223834 70 313 6.0 14.0 0.00 0.00 0.00 63 1010.7
20260503222839 69 283 6.0 14.0 0.00 0.00 0.00 60 1011.1
20260503222834 69 313 7.0 15.0 0.00 0.00 0.00 62 1011.0
20260503221834 69 248 8.0 13.0 0.00 0.00 0.00 60 1011.1
20260503215833 70 262 6.0 13.0 0.00 0.00 0.00 58 1011.3
20260503214833 70 268 7.0 13.0 0.00 0.00 0.00 55 1011.3
20260503213837 71 257 6.0 15.0 0.00 0.00 0.00 53 1011.5
20260503213833 71 290 5.0 15.0 0.00 0.00 0.00 56 1011.4
20260503211833 71 278 7.0 12.0 0.00 0.00 0.00 56 1011.6
20260503210900 60 251 2.0 4.0 0.00 0.00 0.00 84 1014.2
20260503210832 70 268 6.0 15.0 0.00 0.00 0.00 56 1011.7
20260503210232 62 289 4.0 6.0 0.00 0.00 0.00 81 1013.9
20260503205829 69 272 6.0 16.0 0.00 0.00 0.00 57 1011.8
20260503205109 60 243 1.0 6.0 0.00 0.00 0.00 85 1014.2
20260503205002 68 264 3.0 12.0 0.00 0.00 0.00 69 1012.3
20260503204830 69 261 7.0 13.0 0.00 0.00 0.00 61 1011.9
20260503204729 58 265 1.0 4.0 0.00 0.00 0.00 88 1014.2
20260503204617 65 288 3.0 9.0 0.00 0.00 0.00 74 1013.3
20260503204427 50 71 0.0 1.0 0.00 0.00 0.00 94 1014.1
20260503204212 60 238 3.0 6.0 0.00 0.00 0.00 83 1014.1
20260503203852 60 286 1.0 4.0 0.00 0.00 0.00 85 1014.2
20260503203846 59 262 0.0 4.0 0.00 0.00 0.00 87 1014.2
20260503203838 59 314 1.0 3.0 0.00 0.00 0.00 87 1014.3
20260503203832 69 269 8.0 13.0 0.00 0.00 0.00 64 1012.1
20260503203722 58 306 2.0 3.0 0.00 0.00 0.00 87 1014.3
20260503203610 58 286 0.0 1.0 0.00 0.00 0.00 87 1014.4
20260503203603 57 65 0.0 1.0 0.00 0.00 0.00 88 1014.4
20260503203558 57 66 0.0 1.0 0.00 0.00 0.00 89 1014.4
20260503203552 56 66 0.0 0.0 0.00 0.00 0.00 93 1014.3
20260503203548 54 66 0.0 0.0 0.00 0.00 0.00 95 1014.2
20260503203544 52 66 0.0 1.0 0.00 0.00 0.00 95 1014.1
20260503203540 51 66 0.0 1.0 0.00 0.00 0.00 95 1014.2
20260503203536 66 268 3.0 7.0 0.00 0.00 0.00 74 1013.4
20260503203531 66 269 4.0 7.0 0.00 0.00 0.00 70 1013.3
20260503203410 64 289 3.0 10.0 0.00 0.00 0.00 79 1013.6
20260503203403 63 257 2.0 7.0 0.00 0.00 0.00 78 1013.6
20260503203357 63 247 3.0 9.0 0.00 0.00 0.00 77 1013.7
20260503203351 62 274 4.0 7.0 0.00 0.00 0.00 79 1013.8
20260503203344 62 281 3.0 6.0 0.00 0.00 0.00 80 1013.8
20260503203338 66 283 4.0 11.0 0.00 0.00 0.00 73 1013.2
20260503203334 66 282 6.0 9.0 0.00 0.00 0.00 69 1013.2
20260503203222 61 265 4.0 5.0 0.00 0.00 0.00 83 1014.1
20260503203216 66 269 4.0 9.0 0.00 0.00 0.00 74 1013.1
20260503203212 67 298 5.0 13.0 0.00 0.00 0.00 72 1013.0
20260503203208 67 228 5.0 12.0 0.00 0.00 0.00 71 1012.8
20260503203203 67 292 4.0 11.0 0.00 0.00 0.00 72 1012.8
20260503203043 67 288 5.0 11.0 0.00 0.00 0.00 69 1012.8
20260503203039 67 272 6.0 11.0 0.00 0.00 0.00 69 1012.7
20260503203035 67 285 7.0 12.0 0.00 0.00 0.00 68 1012.5
20260503203029 67 271 8.0 15.0 0.00 0.00 0.00 66 1012.5
20260503203024 67 306 7.0 13.0 0.00 0.00 0.00 68 1012.4
20260503202914 68 271 5.0 15.0 0.00 0.00 0.00 69 1012.2
20260503202802 60 292 2.0 6.0 0.00 0.00 0.00 83 1014.1
20260503202644 65 295 4.0 7.0 0.00 0.00 0.00 75 1013.5